Simultaneous Nadir Overpasses (SNOs) Predictions

Prediction of SNOs between GOES-17 and TERRA Satellite Orbit:

Table of predicted SNOs for the next 14.0 days since TLE Epoch: 2/18/2023
Index Date Time (GOES-17) GOES-17 Lat,Lon TERRA Lat,Lon Distance(km) Time Diff (sec)
1 02/18/2023 05:01:16 0.01,-104.67 0.46,-102.48 248.39 80
2 02/18/2023 17:18:53 -0.02,-104.69 0.53,-107.42 309.01 80
3 02/20/2023 17:05:37 -0.01,-104.69 -0.28,-103.57 128.83 80
4 02/21/2023 05:23:23 0.02,-104.67 -0.82,-108.52 438.64 80
5 02/23/2023 05:10:07 0.01,-104.67 0.03,-104.68 1.79 80
6 02/25/2023 04:54:10 0.01,-104.68 0.85,-100.83 438.89 80
7 02/25/2023 17:11:47 -0.02,-104.71 0.18,-105.75 118.19 80
8 02/27/2023 16:58:29 -0.02,-104.72 -0.62,-101.89 320.78 80
9 02/28/2023 05:16:15 0.03,-104.69 -0.44,-106.86 246.35 80
10 03/02/2023 05:02:57 0.03,-104.70 0.39,-103.00 192.82 80
11 03/02/2023 17:20:34 -0.04,-104.72 0.62,-107.93 364.30 80
